Flag for Canada Weather past 2 weeks in Stonewall, Manitoba, Canada

Now
32 °F

Passing clouds.


Feels Like: 32 °F
Forecast: 31 / 47 °F
Wind: No wind

Location: Winnipeg Int. Airportman.

Current Time: Mar 30, 2015 at 4:38:36 AM

Latest Report: Mar 30, 2015 at 4:00 AM


Visibility: 15 mi

Pressure: 29.88 "Hg

Humidity: 80%

Dew point: 27 °F

Location of StonewallLocation

Historic Weather in Stonewall — Graph

°F

Stonewall temperature yesterday

Maximum temperature yesterday: 50 °F (at 4:00 PM)
Minimum temperature yesterday: 36 °F (at 6:00 AM)
Average temperature yesterday: 42 °F

Past Weeks' High & Low Weather Summary

 TemperatureHumidityPressure
High57 °F (Mar 15, 2:00 PM)100% (Mar 25, 2:00 AM)30.50 "Hg (Mar 25, 2:00 AM)
Low5 °F (Mar 21, 6:00 AM)32% (Mar 22, 4:00 PM)29.46 "Hg (Mar 29, 2:00 AM)
Average31 °F69%30.11 "Hg
* Reported Mar 15 3:00 AM — Mar 30 3:00 AM, Stonewall, Weather by CustomWeather, © 2015

Note: Actual official high and low records may vary slightly from our data, if they occured in-between our weather recording intervals... More about our weather records

Advertising

Stonewall weather history for previous 24 hours

 ConditionsComfort  
Time TempWeatherWind HumidityBarometerVisibility
3:00 AM
Mon, Mar 30
32 °FPassing clouds.7 mph80%29.88 "Hg15 mi
2:00 AM30 °FPassing clouds.8 mph86%29.88 "Hg15 mi
1:00 AM32 °FClear.9 mph80%29.88 "Hg15 mi
12:00 AM32 °FClear.8 mph80%29.89 "Hg15 mi
11:00 PM
Sun, Mar 29
36 °FClear.8 mph75%29.89 "Hg15 mi
10:00 PM37 °FClear.8 mph65%29.89 "Hg15 mi
9:00 PM39 °FPassing clouds.9 mph61%29.88 "Hg15 mi
8:00 PM41 °FPassing clouds.10 mph61%29.87 "Hg15 mi
7:00 PM48 °FPassing clouds.12 mph46%29.86 "Hg15 mi
6:00 PM50 °FPassing clouds.17 mph43%29.86 "Hg15 mi
5:00 PM50 °FPassing clouds.21 mph43%29.85 "Hg15 mi
4:00 PM50 °FPassing clouds.21 mph47%29.85 "Hg15 mi
3:00 PM48 °FPassing clouds.23 mph50%29.85 "Hg15 mi
2:00 PM48 °FPassing clouds.21 mph54%29.85 "Hg15 mi
1:00 PM46 °FPassing clouds.20 mph62%29.85 "Hg15 mi
12:00 PM45 °FPassing clouds.22 mph71%29.84 "Hg15 mi
11:00 AM41 °FPartly sunny.24 mph76%29.82 "Hg15 mi
10:00 AM37 °FPartly sunny.22 mph81%29.80 "Hg15 mi
9:00 AM37 °FPartly sunny.18 mph81%29.76 "Hg15 mi
8:00 AM36 °FPassing clouds.22 mph87%29.72 "Hg15 mi
7:00 AM36 °FPassing clouds.25 mph87%29.67 "Hg15 mi
6:00 AM36 °FPassing clouds.25 mph87%29.61 "Hg15 mi
5:00 AM37 °FSprinkles. Overcast.17 mph87%29.56 "Hg15 mi
4:00 AM37 °FSprinkles. Overcast.23 mph93%29.51 "Hg15 mi
Weather by CustomWeather, © 2015

See weather overviewHow to use our weather pages